Regional Weather Roundup
Issued by NWS

Home | Current Version | Previous Version | Text Only | Print | Product List | Glossary On
Versions: 1 2 3 4 5 6 7 8 9 10 11 12 13 14 15 16 17 18 19 20 21 22 23 24 25 26 27 28 29 30 31 32 33 34 35 36 37 38 39 40 41 42 43 44 45 46 47 48 49 50
000
ASUS45 KBOU 310007
RWRCO

WEATHER ROUNDUP FOR COLORADO
NATIONAL WEATHER SERVICE DENVER/BOULDER CO
600 PM MDT SAT AUG 30 2014

NOTE: "FAIR" INDICATES FEW OR NO CLOUDS BELOW 12000 FEET WITH NO
SIGNIFICANT WEATHER AND/OR OBSTRUCTIONS TO VISIBILITY.

COZ001>005-013-030-031-310100-
...NORTHWEST COLORADO...

CITY           SKY/WX    TMP DP  RH WIND       PRES   REMARKS
CRAIG          CLOUDY    70  47  43 CALM      30.04F
HAYDEN         CLOUDY    68  41  37 CALM      30.06F
MEEKER         CLOUDY    73  41  31 S5        30.05F
MOUNT WERNER   NOT AVBL
STEAMBOAT SPGS CLOUDY    64  46  51 CALM      30.12R
WALDEN         CLOUDY    55  43  62 NW6       30.20R
$$

COZ006>008-011-310100-
...WEST CENTRAL VALLEYS...

CITY           SKY/WX    TMP DP  RH WIND       PRES   REMARKS
GRAND JUNCTION PTSUNNY   83  41  22 CALM      29.93F
MONTROSE       CLOUDY    81  40  23 CALM      30.04F
EAGLE          TSTM      72  46  40 SW43G55   30.16R
RIFLE          PTSUNNY   74  47  38 SE20G29   30.00F
DELTA          CLOUDY    83  44  25 E7        29.98F
NUCLA          CLOUDY    81  32  17 S16G22    30.06F
$$

COZ017>023-064>068-310100-
...SOUTHWEST COLORADO...

CITY           SKY/WX    TMP DP  RH WIND       PRES   REMARKS
DURANGO        CLOUDY    80  30  16 W12       30.13S
CORTEZ         SUNNY     83  36  18 S5        30.07F
PAGOSA SPRINGS CLOUDY    75  32  20 CALM      30.21S
TELLURIDE      CLOUDY    68  30  24 SW8       30.30F
WOLF CREEK PAS PTSUNNY   50  32  50 SW16G25   30.51F
$$

COZ009-010-012-014-032>034-037-058>063-310100-
...CENTRAL COLORADO...

CITY           SKY/WX    TMP DP  RH WIND       PRES   REMARKS
ASPEN          CLOUDY    59  44  57 SW6       30.22R
BUENA VISTA    PTSUNNY   69  34  27 W10       30.19S
COPPER MTN     CLOUDY    54  34  47 W24G30    30.47F
BERTHOUD PASS  FAIR      41  41 100 W28       30.48F
COTTONWOOD PAS PTSUNNY   63  32  31 W17G23    30.34S
GUNNISON       PTSUNNY   68  43  40 N8        30.21S
KREMMLING      CLOUDY    70  34  26 CALM      30.14S
LEADVILLE      PTSUNNY   56  35  45 NW9G21    30.33S
MONARCH PASS   CLOUDY    50  32  50 W17G35    30.60R
SALIDA         NOT AVBL
SUNLIGHT       CLOUDY    50  48  93 CALM      30.39F THUNDER
WILKERSON PASS NOT AVBL
$$

COZ069>075-310100-
...SAN LUIS VALLEY/SANGRE DE CRISTO MOUNTAINS...

CITY           SKY/WX    TMP DP  RH WIND       PRES   REMARKS
ALAMOSA        CLOUDY    71  41  33 NW12      30.19R
LA VETA PASS   NOT AVBL
SAGUACHE       NOT AVBL
$$

COZ035-036-038>040-310100-
...NORTHERN COLORADO FRONT RANGE...

CITY           SKY/WX    TMP DP  RH WIND       PRES   REMARKS
DENVER INTL AP PTSUNNY   79  41  25 NW7       29.95R
DMNS CITY PARK   N/A     78  40  26 N3G14     29.97R
AURORA         PTSUNNY   79  40  25 W8G20     29.99R
FRONT RANGE AP NOT AVBL
ERIE MUNI ARPT PTSUNNY   76  42  28 S12       29.95R
BOULDER MUN AP PTSUNNY   79  37  22 W8G22     29.96R
CENTENNIAL     PTSUNNY   78  38  23 NW9       30.00R
BROOMFIELD     CLOUDY    68  52  56 S7        30.01R
FORT COLLINS   PTSUNNY   79  43  27 W17G23    29.92R
LONGMONT       PTSUNNY   79  42  26 W13G26    29.96R
$$

COZ041-046-047-076>085-087-088-310100-
...PIKES PEAK/PALMER DIVIDE AND SOUTHERN FOOTHILLS...

CITY           SKY/WX    TMP DP  RH WIND       PRES   REMARKS
COLO. SPRINGS  PTSUNNY   81  38  21 CALM      30.03F
A. F. ACADEMY  PTSUNNY   73  48  41 N1        30.05S
ELLICOTT       PTSUNNY   76  41  28 VRB5      30.04R
FALCON         NOT AVBL
FORT CARSON    PTSUNNY   77  46  32 NE3       30.00S
LIMON          SUNNY     80  40  23 SW9       29.96S
MONUMENT HILL  PTSUNNY   68  43  40 S8        30.09S
TRINIDAD       SUNNY     86  34  15 CALM      29.99F
$$

COZ042>045-048>051-090-091-310100-
...NORTHEAST COLORADO...

CITY           SKY/WX    TMP DP  RH WIND       PRES   REMARKS
GREELEY ARPT   PTSUNNY   81  45  28 NW14      29.90R
AKRON          SUNNY     85  42  22 S15G28    29.89S
BURLINGTON     SUNNY     87  43  21 S12       29.89F
WRAY             N/A     88  48  24 S13G18    29.84F
STERLING       SUNNY     86  59  39 S6        29.82S
HOLYOKE        SUNNY     86  50  28 S9        29.83S
FORT MORGAN    SUNNY     80  50  34 S3        29.87S
$$

COZ086-089-092>099-310100-
...SOUTHEAST COLORADO...

CITY           SKY/WX    TMP DP  RH WIND       PRES   REMARKS
PUEBLO         MOSUNNY   91  38  15 N5        29.90R
LA JUNTA       SUNNY     90  45  21 E8        29.87F
LAMAR          SUNNY     91  43  18 SW6       29.84S
SPRINGFIELD      N/A     88  46  23 S21       29.90F
$$



USA.gov is the U.S. government's official web portal to all federal, state and local government web resources and services.